Notices

What's New in latest Release from April 7th, 2021:

- Updated Glossary, including Speed of Maximum Gust, and Total Hourly Precipitation

- Updated national and regional climate services offices contacts and prices information

- Addition of station inventory lists for 1981-2010, 1971-2000, and 1961-1990 Normals.

If you haven't already, please take our survey and provide feedback about our website: https://eccc.sondage-survey.ca/f/LanguageSelection.aspx?s=442ca660-fcf1-47c0-95a9-59707d6fd709

Hourly Data Report for December 09, 2004

TORONTO CITY
ONTARIO

43°40'00.000" N
79°24'00.000" W
112.50 m
6158355
71508
XTO

Download Data

Hourly Data (December 2004)
Hourly Data Report for December 9, 2004
TIME
LST
Temp Definition
°C
Dew Point Definition
°C
Rel Hum Definition
%
Precip. Amount Definition
mm

Wind Dir Definition
10's deg

Wind Spd Definition
km/h
Visibility Definition
km
Stn Press Definition
kPa
Hmdx Definition


Wind Chill Definition


Weather Definition


00:00 5.0 2.4 83   LegendMM LegendMM LegendMM 100.77     LegendNANA
01:00 5.0 2.1 81   LegendMM LegendMM LegendMM 100.70     LegendNANA
02:00 4.3 1.4 81   LegendMM LegendMM LegendMM 100.66     LegendNANA
03:00 4.8 1.1 77   LegendMM LegendMM LegendMM 100.64     LegendNANA
04:00 4.2 2.3 87   LegendMM LegendMM LegendMM 100.54     LegendNANA
05:00 4.2 2.6 89   LegendMM LegendMM LegendMM 100.41     LegendNANA
06:00 4.6 3.2 91   LegendMM LegendMM LegendMM 100.44     LegendNANA
07:00 5.0 3.3 89   LegendMM LegendMM LegendMM 100.42     LegendNANA
08:00 5.2 2.9 85   LegendMM LegendMM LegendMM 100.35     LegendNANA
09:00 5.3 3.1 86   LegendMM LegendMM LegendMM 100.32     LegendNANA
10:00 5.4 3.3 86   LegendMM LegendMM LegendMM 100.28     LegendNANA
11:00 5.4 3.2 86   LegendMM LegendMM LegendMM 100.20     LegendNANA
12:00 5.5 3.0 84   LegendMM LegendMM LegendMM 100.12     LegendNANA
13:00 5.6 2.7 82   LegendMM LegendMM LegendMM 100.02     LegendNANA
14:00 5.5 2.7 82   LegendMM LegendMM LegendMM 99.96     LegendNANA
15:00 5.3 2.9 84   LegendMM LegendMM LegendMM 99.87     LegendNANA
16:00 5.3 3.3 87   LegendMM LegendMM LegendMM 99.83     LegendNANA
17:00 5.2 3.5 89   LegendMM LegendMM LegendMM 99.78     LegendNANA
18:00 5.2 3.7 90   LegendMM LegendMM LegendMM 99.75     LegendNANA
19:00 5.2 3.8 91   LegendMM LegendMM LegendMM 99.69     LegendNANA
20:00 4.8 3.2 89   LegendMM LegendMM LegendMM 99.67     LegendNANA
21:00 4.5 2.9 89   LegendMM LegendMM LegendMM 99.61     LegendNANA
22:00 4.1 2.6 90   LegendMM LegendMM LegendMM 99.63     LegendNANA
23:00 3.9 2.2 89   LegendMM LegendMM LegendMM 99.62     LegendNANA

Notes on Data Quality.

Legend

  • E = Estimated
  • M = Missing
  • NA = Not Available*
  • [empty] = Indicates an unobserved value
Date modified: